Location: Unspecified
(3.5134°S, 0.0000°E)
Time: 02:04:26
(UTC+00:00)

USA 81 - Visible Passes

Search period start: 05 April 2026 00:00
Search period end: 15 April 2026 00:00
Orbit: 783 x 785 km, 85.0° (Epoch: 29 March)

Date Brightness Start Highest point End Pass type
(mag) Time Alt. Az. Time Alt. Az. Time Alt. Az.
5 Apr 7.5 05:43:16 10° ENE 05:45:53 14° E 05:48:30 10° ESE visible
5 Apr 7.4 19:58:04 10° WSW 19:59:06 11° W 20:00:08 10° W visible
6 Apr 6.5 19:23:22 10° SW 19:27:25 23° W 19:31:29 10° NW visible
7 Apr 5.2 18:50:43 10° SSW 18:55:45 47° W 19:00:45 10° NNW visible
8 Apr 4.0 18:18:46 10° S 18:24:02 83° E 18:29:17 10° N visible
9 Apr 7.4 05:17:18 10° ENE 05:19:46 13° E 05:22:13 10° ESE visible
9 Apr 7.4 19:31:35 10° WSW 19:32:59 11° W 19:34:23 10° WNW visible
10 Apr 6.6 18:57:11 10° SW 19:01:19 24° W 19:05:26 10° NW visible
11 Apr 5.2 18:24:34 10° SSW 18:29:37 49° W 18:34:39 10° NNW visible
12 Apr 6.5 05:20:57 10° NNE 05:25:19 27° E 05:29:42 10° SE visible
13 Apr 7.3 04:51:22 10° ENE 04:53:39 13° E 04:55:56 10° ESE visible
13 Apr 7.5 19:05:11 10° WSW 19:06:52 11° W 19:08:33 10° WNW visible
14 Apr 6.7 18:30:59 10° SW 18:35:11 24° W 18:39:23 10° NW visible
